Simultaneous Nadir Overpasses (SNOs) Predictions

Prediction of SNOs between GOES-15 and NOAA-20 Satellite Orbit:

Table of predicted SNOs for the next 14.0 days since TLE Epoch: 11/26/2022
Index Date Time (GOES-15) GOES-15 Lat,Lon NOAA-20 Lat,Lon Distance(km) Time Diff (sec)
1 11/28/2022 09:58:43 0.05,-128.06 0.21,-128.78 81.82 80
2 11/29/2022 09:42:38 0.06,-128.03 -0.80,-124.24 431.99 80
3 11/30/2022 22:01:52 -0.04,-127.91 -0.43,-129.53 184.73 80
4 12/01/2022 21:45:47 -0.05,-127.89 0.58,-124.99 329.33 80
5 12/03/2022 10:04:54 0.03,-127.92 0.56,-130.27 267.96 80
6 12/04/2022 09:48:48 0.04,-127.89 -0.45,-125.73 245.87 80
7 12/05/2022 22:08:03 -0.02,-127.77 -0.76,-131.02 371.31 80
8 12/06/2022 21:51:57 -0.03,-127.73 0.25,-126.49 142.27 80
9 12/08/2022 10:11:05 0.02,-127.75 0.89,-131.76 455.77 80
10 12/09/2022 09:54:58 0.03,-127.72 -0.07,-127.21 57.40 80
